Wind_Speed
6 6 6 6 7 8 9 11 14 15 14 11 8 5 3 4 7 9 11 10 7 5 10 9 10 9 12 11 10 11 12 13 11 9 7 9 10 8 9 12 11 10 10 14 12
5 5 5 5 6 7 8 10 12 14 14 13 9 6 4 5 7 9 11 9 9 11 12 9 11 10 10 9 9 7 12 10 9 10 9 9 8 8 11 12 9 13 10 9 12
4 4 4 5 6 6 7 9 10 13 14 14 11 8 6 6 7 8 9 9 10 10 9 9 11 10 7 7 5 5 10 7 6 7 9 10 7 6 10 8 9 9 9 12 13
3 3 4 5 6 7 8 8 9 11 13 14 13 10 8 8 4 7 10 10 9 7 7 11 10 7 5 3 3 5 4 7 10 10 10 9 6 7 6 5 9 12 10 11 11
2 3 4 5 6 7 8 8 8 10 12 13 14 12 10 9 5 7 9 10 7 6 8 12 6 6 2 2 5 3 2 8 9 9 9 8 7 4 1 5 11 15 15 12 13
1 2 4 5 6 7 7 8 9 9 11 13 14 13 11 9 6 8 11 11 9 5 7 9 8 6 3 4 5 6 10 9 7 6 8 7 5 9 2 3 11 12 14 13 14
1 2 4 5 7 8 8 8 9 10 9 12 13 14 13 12 8 10 13 14 11 7 7 4 5 6 6 3 7 9 8 8 5 4 2 4 5 4 10 4 9 13 14 14 14
2 2 5 6 6 8 9 9 9 9 10 10 12 13 15 12 10 11 13 12 11 9 5 6 6 6 3 4 6 5 4 2 0 2 2 1 6 2 9 9 4 11 15 16 15
3 1 5 6 7 8 8 9 10 9 10 11 11 12 12 13 12 14 14 15 12 10 5 3 5 3 5 5 4 1 3 4 3 4 4 1 2 3 3 6 5 6 11 15 17
4 2 4 6 7 8 8 8 9 10 11 10 11 10 11 15 13 14 15 15 14 11 6 1 2 2 2 1 5 4 5 4 2 4 5 5 5 3 3 5 7 4 10 12 13
4 3 2 4 7 7 8 8 8 8 12 15 14 19 12 16 14 14 15 15 13 11 7 8 3 4 1 2 3 6 6 4 1 3 7 9 9 8 9 9 11 7 6 15 13
3 2 2 3 6 8 8 8 6 8 9 13 9 16 9 16 19 15 15 15 15 11 11 7 7 5 5 5 6 9 6 3 1 2 0 6 8 9 13 4 9 11 7 9 16
1 1 2 4 6 8 8 8 5 7 7 12 10 13 9 11 11 14 15 16 12 13 11 12 3 5 4 6 6 5 4 3 2 3 2 8 4 6 10 13 11 17 16 14 13
4 3 2 3 6 8 8 7 6 7 5 7 12 12 10 10 8 14 17 14 15 12 12 11 13 11 9 6 5 5 3 3 2 4 5 6 4 3 4 7 7 13 21 21 15
7 6 6 4 6 7 8 8 8 9 6 6 14 13 12 9 7 10 13 18 12 12 14 10 8 11 13 11 6 3 2 2 4 6 8 6 9 5 4 4 5 10 13 21 23
9 9 9 8 7 8 8 8 10 2 3 6 12 12 13 12 7 7 10 16 16 10 17 15 15 13 9 9 9 10 5 5 8 11 14 4 6 3 3 0 4 4 7 12 21
11 13 12 11 10 10 10 8 3 6 8 7 11 11 13 11 8 9 13 14 10 11 15 14 18 14 15 11 11 11 10 13 6 7 3 3 9 12 11 7 7 11 10 10 20
11 14 15 14 14 13 12 7 7 4 9 12 11 10 14 12 10 9 11 12 15 10 4 11 12 17 15 18 15 13 16 14 6 8 8 2 6 1 9 14 13 13 14 11 20
7 11 15 17 17 17 15 11 4 6 8 9 11 11 13 14 10 12 12 11 11 14 9 5 8 7 13 14 16 16 18 15 15 13 13 9 6 12 7 7 4 9 3 7 14
4 8 12 16 18 18 15 14 7 13 12 14 11 12 15 15 14 14 12 9 12 14 14 6 6 5 8 8 12 18 9 12 18 13 15 5 5 7 8 6 4 9 11 8 3
3 4 9 13 15 17 14 14 10 15 14 9 10 8 11 14 15 15 9 8 11 9 16 12 11 7 6 9 9 9 14 14 17 14 12 11 6 0 5 7 3 7 9 7 6
5 2 8 11 12 17 13 12 17 15 15 13 12 8 9 11 13 15 15 10 14 13 9 13 11 15 16 12 14 13 14 14 15 11 13 14 21 17 11 9 6 12 15 12 11
9 9 10 11 7 11 15 16 17 13 16 10 7 15 14 9 9 11 13 18 15 14 10 11 11 16 14 12 15 15 15 18 17 17 19 18 17 6 13 14 16 17 17 17 15
8 5 13 15 15 10 10 10 11 16 16 15 14 15 12 9 15 6 10 15 19 19 18 16 16 18 20 11 3 7 8 9 13 18 19 21 20 17 18 18 19 16 16 18 14
10 12 11 8 15 15 14 10 9 9 15 14 10 11 9 10 11 11 8 8 15 20 19 14 19 20 21 19 16 19 20 20 21 21 24 24 24 23 22 23 24 26 19 18 18
9 11 12 12 12 14 14 16 13 14 13 9 9 14 15 11 12 9 9 10 12 9 11 13 18 15 21 20 21 25 25 25 26 26 28 27 30 26 28 26 26 26 25 24 22
5 8 10 11 12 12 14 15 16 15 16 19 18 16 11 14 22 23 23 21 14 14 11 13 16 18 25 22 23 27 26 30 30 27 28 27 24 28 29 33 27 29 26 27 28
Wind_Direction
110 122 134 148 167 176 181 186 186 188 187 198 185 171 153 111 107 135 139 134 114 63 132 92 89 91 81 59 64 62 76 69 73 63 112 108 96 106 125 141 142 168 150 183 162
96 116 139 154 163 175 184 188 188 190 190 194 196 176 166 129 120 137 144 137 118 96 114 113 103 100 82 83 70 76 66 63 79 72 96 121 104 104 123 142 147 154 181 187 172
100 110 129 159 171 175 182 190 188 190 193 195 194 187 172 149 129 146 153 138 122 106 106 125 114 104 80 71 83 62 68 64 74 84 94 108 96 107 134 149 160 165 174 172 172
111 126 136 148 168 178 180 189 190 186 192 196 194 195 181 160 163 157 155 148 139 105 96 123 112 90 99 101 83 83 44 87 92 100 100 91 104 113 131 165 190 166 162 174 177
114 141 158 161 159 169 178 183 184 189 185 196 195 198 186 174 174 162 159 154 149 117 117 125 116 108 141 99 65 62 74 110 104 99 105 76 84 107 100 159 173 165 155 173 185
125 166 172 175 168 163 173 181 183 187 187 189 194 199 191 175 188 174 167 168 163 152 137 134 160 183 86 99 79 77 111 119 106 96 54 90 69 69 39 158 165 160 158 172 183
6 190 187 187 176 167 167 178 184 187 187 187 190 190 194 193 185 181 179 173 167 161 150 158 130 130 121 82 94 103 105 101 110 109 29 135 80 60 56 111 171 165 168 170 175
16 189 189 188 182 176 173 177 183 189 190 189 190 189 193 193 184 187 182 175 173 185 165 125 112 114 111 91 108 114 97 241 252 166 333 30 76 60 76 69 149 182 182 179 180
32 135 176 182 184 182 177 181 180 187 192 193 192 194 201 197 188 186 184 181 184 189 159 114 90 84 63 126 133 81 6 339 284 223 261 186 21 339 38 140 96 179 193 185 184
49 89 161 174 178 178 177 176 180 187 190 191 193 189 216 205 196 191 188 192 195 199 229 1 22 112 82 242 52 3 346 345 239 247 248 262 261 255 337 202 184 181 201 207 202
38 60 130 165 173 170 174 170 166 190 192 191 196 199 215 210 208 201 195 201 212 223 222 262 254 225 351 266 320 327 323 330 342 248 244 268 254 261 235 226 211 202 218 212 213
38 50 93 156 163 168 168 165 176 193 194 204 213 210 229 210 209 213 208 200 209 215 232 253 239 247 280 275 313 324 327 36 123 49 161 291 272 248 238 256 223 207 206 210 209
238 104 127 150 159 165 172 176 200 197 182 209 208 200 210 197 204 221 216 213 212 218 231 231 235 258 281 289 303 337 360 17 20 312 296 335 268 228 227 231 224 221 218 215 214
234 219 186 155 164 171 171 180 177 170 158 217 205 201 189 183 217 227 215 212 222 218 232 238 239 255 262 280 291 294 357 11 337 309 18 344 346 205 222 226 258 236 224 224 226
233 227 213 198 182 182 174 171 164 150 213 185 193 197 190 170 218 220 217 214 215 232 224 235 243 253 250 255 266 289 330 289 307 283 302 204 280 151 260 241 266 252 240 227 224
228 228 222 209 195 184 173 166 162 183 179 167 189 193 191 196 212 207 209 204 206 222 234 232 249 247 236 229 242 265 291 280 280 283 275 98 298 262 181 136 281 288 293 231 222
225 226 219 216 207 197 184 164 184 247 187 177 176 185 186 199 205 206 202 201 199 214 236 241 245 241 241 235 246 246 258 260 248 233 309 14 297 256 279 289 290 293 292 262 223
229 219 221 218 209 205 191 178 232 199 172 189 173 173 189 192 204 192 192 206 211 206 225 226 218 227 238 228 236 248 249 272 287 290 323 311 274 267 295 297 294 318 307 236 218
235 222 217 216 212 203 191 205 240 191 192 175 186 187 198 199 185 193 201 211 220 222 220 218 231 227 227 224 224 239 241 257 277 265 270 277 284 319 349 313 42 15 332 215 215
249 222 216 214 212 205 196 216 230 215 201 193 200 203 207 201 197 200 205 218 225 221 210 235 250 210 219 206 229 223 246 244 239 267 272 266 262 292 7 44 88 52 45 86 194
247 211 216 211 207 201 208 225 221 224 209 191 216 215 207 204 209 214 208 217 202 204 208 219 228 201 200 217 213 219 230 239 261 273 291 285 281 345 314 339 339 2 2 8 356
224 213 215 201 186 196 219 210 223 225 220 218 216 196 200 212 214 212 214 213 210 210 213 213 233 236 240 237 232 233 245 242 251 244 247 276 275 283 290 295 294 325 331 320 319
215 220 207 189 200 209 223 226 228 220 223 217 220 213 214 208 208 202 205 217 210 197 203 210 229 242 237 234 247 237 241 241 253 257 259 272 267 251 303 301 301 310 308 297 307
206 200 211 215 210 192 195 201 214 224 228 228 232 231 224 220 216 216 214 217 216 221 225 228 241 241 261 271 280 212 227 245 251 264 265 259 278 279 285 283 281 281 291 295 289
207 220 210 205 219 207 196 198 203 213 223 221 222 219 213 225 233 231 224 233 236 235 232 228 245 252 253 258 261 262 261 257 257 263 266 275 279 280 283 279 289 282 280 285 280
224 222 215 223 213 210 215 222 208 216 212 219 211 222 227 228 228 224 223 235 229 243 236 241 248 250 253 257 264 265 260 259 258 259 264 270 274 282 281 280 283 287 280 270 280
222 214 209 219 217 213 225 230 229 228 232 236 235 238 239 229 237 238 243 230 241 237 237 246 246 254 263 262 267 264 259 262 264 263 265 267 269 268 274 281 280 274 276 267 268
Height
3157 3156 3157 3157 3157 3157 3158 3160 3163 3165 3167 3167 3170 3172 3172 3174 3174 3175 3176 3178 3178 3177 3177 3178 3179 3180 3180 3181 3182 3181 3184 3182 3183 3182 3183 3182 3183 3182 3182 3183 3186 3187 3190 3190 3191
3157 3157 3157 3157 3158 3158 3158 3160 3162 3165 3167 3168 3170 3172 3173 3174 3175 3176 3178 3178 3179 3179 3179 3180 3181 3182 3182 3184 3184 3183 3184 3186 3186 3185 3185 3184 3185 3184 3186 3187 3186 3188 3188 3190 3192
3157 3157 3158 3158 3158 3158 3159 3160 3162 3164 3166 3169 3170 3172 3174 3175 3177 3177 3178 3179 3180 3180 3181 3182 3182 3183 3185 3185 3186 3187 3187 3188 3187 3187 3186 3186 3186 3185 3188 3189 3188 3188 3188 3190 3192
3157 3157 3157 3158 3159 3159 3159 3159 3161 3164 3166 3168 3171 3172 3174 3176 3181 3178 3178 3180 3180 3181 3182 3183 3184 3185 3189 3188 3187 3190 3188 3189 3189 3188 3188 3188 3187 3188 3189 3190 3189 3189 3189 3191 3194
3157 3157 3157 3158 3159 3159 3159 3160 3161 3163 3165 3167 3171 3173 3175 3177 3177 3178 3179 3180 3181 3182 3183 3184 3187 3187 3189 3188 3189 3189 3189 3189 3189 3189 3190 3188 3189 3189 3188 3186 3187 3188 3189 3192 3195
3156 3156 3156 3157 3158 3159 3160 3160 3161 3162 3165 3167 3169 3172 3175 3179 3177 3178 3179 3181 3182 3182 3184 3185 3187 3187 3189 3188 3188 3188 3189 3189 3190 3189 3189 3191 3189 3189 3188 3186 3186 3188 3188 3192 3195
3155 3155 3155 3157 3157 3159 3160 3160 3161 3162 3164 3166 3169 3172 3175 3177 3177 3178 3179 3182 3183 3184 3185 3186 3187 3187 3188 3189 3188 3190 3191 3191 3191 3191 3191 3191 3191 3192 3188 3187 3188 3189 3190 3192 3194
3154 3154 3155 3155 3157 3158 3159 3160 3161 3162 3164 3166 3168 3171 3174 3176 3177 3178 3180 3182 3184 3185 3186 3187 3187 3188 3189 3189 3190 3192 3192 3191 3191 3191 3191 3191 3193 3190 3189 3189 3189 3190 3191 3192 3194
3154 3154 3154 3155 3156 3157 3158 3160 3161 3163 3164 3166 3168 3171 3174 3175 3177 3178 3180 3182 3184 3185 3187 3187 3188 3189 3190 3191 3191 3191 3191 3191 3192 3191 3191 3193 3193 3192 3190 3190 3190 3191 3192 3192 3193
3155 3154 3154 3154 3155 3156 3158 3160 3161 3163 3165 3166 3169 3174 3172 3174 3176 3178 3180 3182 3184 3186 3188 3188 3189 3191 3191 3190 3190 3191 3191 3190 3190 3192 3191 3193 3193 3191 3191 3191 3191 3191 3192 3192 3193
3154 3154 3154 3154 3155 3156 3158 3159 3164 3165 3164 3165 3167 3167 3170 3172 3175 3177 3180 3182 3184 3186 3189 3188 3191 3190 3190 3191 3191 3191 3190 3190 3190 3190 3190 3191 3192 3192 3190 3191 3191 3191 3191 3192 3193
3154 3153 3153 3153 3154 3156 3157 3159 3160 3162 3164 3164 3165 3167 3169 3170 3173 3175 3179 3183 3184 3186 3187 3190 3189 3189 3189 3190 3190 3190 3189 3188 3189 3188 3189 3189 3188 3189 3189 3188 3190 3191 3191 3192 3193
3154 3153 3153 3153 3154 3156 3157 3158 3159 3160 3162 3163 3164 3166 3168 3171 3173 3175 3177 3180 3183 3185 3187 3188 3187 3187 3188 3189 3189 3188 3188 3188 3189 3188 3187 3186 3184 3186 3186 3186 3186 3188 3190 3191 3192
3153 3152 3152 3153 3155 3154 3156 3157 3158 3159 3163 3163 3164 3166 3167 3169 3172 3172 3174 3179 3180 3184 3185 3186 3186 3186 3188 3189 3189 3186 3187 3188 3189 3188 3184 3186 3181 3184 3185 3184 3184 3185 3186 3188 3189
3151 3151 3151 3152 3153 3154 3156 3156 3157 3159 3158 3162 3161 3163 3165 3170 3169 3170 3171 3175 3180 3181 3183 3185 3184 3185 3187 3188 3188 3188 3187 3188 3188 3186 3186 3183 3184 3179 3182 3184 3185 3183 3183 3184 3186
3149 3148 3149 3151 3151 3153 3154 3155 3158 3162 3157 3160 3159 3162 3165 3167 3168 3168 3170 3173 3175 3177 3178 3181 3179 3182 3185 3184 3185 3185 3187 3187 3186 3184 3180 3180 3184 3176 3179 3182 3183 3183 3181 3181 3182
3145 3146 3147 3148 3150 3151 3153 3155 3161 3157 3157 3159 3160 3160 3164 3166 3167 3167 3168 3171 3175 3177 3177 3178 3178 3179 3180 3183 3183 3184 3185 3180 3178 3174 3173 3180 3182 3179 3179 3180 3179 3179 3179 3177 3178
3141 3142 3143 3145 3147 3149 3152 3156 3157 3154 3156 3155 3158 3160 3163 3164 3167 3167 3168 3170 3172 3173 3174 3174 3173 3175 3177 3179 3181 3181 3182 3178 3177 3173 3173 3177 3176 3176 3177 3176 3176 3173 3171 3172 3174
3138 3138 3140 3141 3144 3147 3151 3154 3152 3153 3153 3155 3156 3159 3161 3162 3164 3165 3167 3169 3170 3171 3174 3172 3172 3172 3172 3175 3178 3179 3180 3180 3177 3176 3176 3172 3174 3174 3175 3175 3174 3172 3169 3169 3172
3135 3135 3136 3138 3141 3144 3149 3151 3149 3147 3148 3151 3155 3156 3157 3159 3161 3162 3164 3164 3166 3167 3170 3171 3171 3171 3170 3172 3173 3175 3176 3177 3175 3174 3172 3167 3173 3171 3174 3173 3174 3174 3173 3172 3173
3133 3134 3134 3136 3139 3143 3147 3148 3145 3145 3147 3150 3152 3153 3155 3156 3158 3159 3161 3161 3161 3162 3165 3169 3170 3170 3170 3170 3169 3172 3172 3174 3174 3172 3168 3167 3166 3169 3172 3173 3174 3174 3174 3174 3173
3131 3135 3132 3134 3139 3139 3143 3142 3142 3143 3145 3147 3148 3150 3152 3153 3155 3156 3158 3159 3158 3160 3163 3165 3166 3165 3166 3164 3166 3167 3168 3169 3168 3168 3169 3170 3169 3168 3170 3171 3171 3171 3172 3172 3171
3129 3130 3131 3133 3139 3138 3136 3138 3139 3142 3142 3144 3146 3147 3148 3151 3154 3153 3154 3152 3155 3157 3160 3160 3161 3160 3161 3164 3160 3161 3164 3165 3165 3166 3166 3166 3164 3165 3167 3168 3169 3167 3167 3167 3168
3127 3131 3130 3131 3132 3135 3136 3137 3137 3138 3139 3141 3142 3144 3147 3149 3149 3150 3151 3150 3152 3152 3154 3155 3157 3157 3153 3154 3157 3159 3160 3161 3162 3160 3158 3158 3159 3162 3164 3163 3162 3162 3162 3163 3164
3124 3125 3126 3129 3128 3130 3132 3133 3136 3136 3136 3138 3140 3142 3144 3147 3147 3148 3148 3148 3148 3149 3150 3153 3153 3154 3153 3154 3154 3155 3155 3156 3157 3157 3156 3156 3156 3158 3158 3157 3157 3158 3158 3158 3157
3122 3123 3123 3124 3125 3128 3129 3130 3131 3132 3134 3136 3138 3137 3139 3143 3144 3145 3144 3146 3147 3146 3148 3149 3149 3149 3149 3150 3150 3148 3149 3149 3149 3150 3150 3151 3150 3154 3147 3150 3151 3151 3152 3152 3152
3118 3119 3120 3121 3123 3125 3125 3126 3127 3129 3131 3131 3132 3134 3136 3136 3135 3136 3137 3138 3140 3141 3144 3145 3145 3145 3142 3145 3144 3141 3142 3141 3141 3142 3143 3144 3145 3141 3143 3139 3143 3143 3144 3145 3146